Location: B
(0.0000°N, 0.0000°E)
Time: 09:10:45
(UTC+01:00)

Cosmos 1025 Rocket - Visible Passes

Search period start: 04 December 2016 00:00
Search period end: 14 December 2016 00:00
Orbit: 595 x 618 km, 82.5° (Epoch: 04 December)

Date Brightness Start Highest point End Pass type
(mag) Time Alt. Az. Time Alt. Az. Time Alt. Az.
04 Dec 4.0 19:49:52 10° SSW 19:54:03 49° W 19:58:14 10° N visible
05 Dec 5.3 20:03:55 10° SW 20:07:26 24° W 20:10:57 10° NNW visible
06 Dec 6.1 20:19:06 10° WSW 20:20:49 12° W 20:22:33 10° WNW visible
09 Dec 4.7 19:19:39 10° SSW 19:23:40 37° W 19:27:41 10° NNW visible
10 Dec 6.3 05:52:01 10° ENE 05:53:04 11° E 05:54:07 10° E visible
10 Dec 5.9 19:33:59 10° SW 19:37:03 19° W 19:40:07 10° NW visible
11 Dec 5.6 06:03:07 10° NE 06:06:27 22° E 06:09:46 10° SE visible
12 Dec 4.3 06:15:44 10° NNE 06:19:50 44° E 06:23:55 10° SSE visible
